This demonstration page uses our WeatherBlox Daily Observations layout. Learn more.

Left ArrowRight Arrow

Hourly Observations for May 25, 2016

Temp ( °F °C ) Dew Point ( °F °C ) Humidity (%) Winds ( mph kmh ) Pressure ( in mb ) Visibility ( mi km ) Precip ( " mm )
12:48 am 00:48 Mostly Clear 66 19 63 17 88 88 S 20 31 29.94 1014 10 16 0.00 0.00
12:52 am 00:52 Mostly Clear 67 19.4 62 16.7 84 84 WSW 15 24 29.93 1014 10 16 0.00 0.00
1:07 am 01:07 Mostly Cloudy 66 18.9 63 17.2 90 90 SSW 7 11 29.94 1014 10 16 0.00 0.00
1:50 am 01:50 Partly Cloudy 66 19 63 17 88 88 S 12 19 29.94 1014 10 16 0.00 0.00
1:52 am 01:52 Mostly Clear 66 18.9 62 16.7 87 87 SSE 12 19 29.95 1014 10 16 0.00 0.00
2:52 am 02:52 Clear 65 18.3 62 16.7 90 90 SSE 10 17 29.93 1013 10 16 0.00 0.00
3:52 am 03:52 Clear 65 18.3 62 16.7 90 90 SSE 8 13 29.94 1014 10 16 0.00 0.00
4:52 am 04:52 Partly Cloudy 67 19.4 63 17.2 87 87 SSW 10 17 29.97 1015 10 16 0.00 0.00
5:52 am 05:52 Mostly Cloudy with Light Rain 67 19.4 63 17.2 87 87 WNW 9 15 30.01 1016 10 16 0.00 0.03
5:59 am 05:59 Cloudy with Nearby Thunderstorms 67 19.4 63 17.2 87 87 SW 10 17 30.00 1016 10 16 0.00 0.03
6:26 am 06:26 Cloudy with Rain 66 19 63 17 88 88 SW 10 17 30.03 1017 7 11 0.00 0.00
6:52 am 06:52 Cloudy with Rain 66 18.9 64 17.8 93 93 NW 5 7 30.01 1016 4 6 0.12 3.05
7:52 am 07:52 Mostly Cloudy 66 18.9 61 16.1 84 84 WNW 8 13 29.99 1016 10 16 0.05 1.27
8:52 am 08:52 Cloudy with Light Rain 65 18.3 60 15.6 84 84 SW 12 19 30.02 1017 10 16 0.01 0.25
9:22 am 09:22 Cloudy with Thunderstorms 64 18 61 16 88 88 SW 14 22 30.03 1017 9 14 0.00 0.00
9:37 am 09:37 Cloudy with Light Rain 64 17.8 59 15 84 84 WSW 12 19 30.03 1017 9 14 0.06 1.52
9:52 am 09:52 Cloudy with Light Rain 64 17.8 59 15 84 84 SW 12 19 30.02 1017 7 11 0.09 2.29
10:52 am 10:52 Cloudy with Light Rain 64 17.8 58 14.4 81 81 SSE 31 50 29.91 1013 6 10 0.11 2.79
10:59 am 10:59 Cloudy with Light Rain 65 18.3 58 14.4 78 78 SSE 32 52 29.88 1012 9 14 0.00 0.03
11:52 am 11:52 Sunny 68 20 59 15 73 73 ESE 7 11 29.91 1013 10 16 0.02 0.51
12:52 pm 12:52 Sunny 73 22.8 59 15 62 62 SE 17 28 29.92 1013 10 16 0.00 0.00
1:52 pm 13:52 Sunny 78 25.6 61 16.1 56 56 S 18 30 29.93 1014 10 16 0.00 0.00
2:52 pm 14:52 Sunny 80 26.7 62 16.7 54 54 S 18 30 29.94 1014 10 16 0.00 0.00
3:52 pm 15:52 Sunny 82 27.8 62 16.7 51 51 S 15 24 29.91 1013 10 16 0.00 0.00
4:52 pm 16:52 Mostly Sunny 80 26.7 63 17.2 56 56 S 9 15 29.91 1013 10 16 0.00 0.00
5:52 pm 17:52 Partly Cloudy 80 26.7 65 18.3 60 60 S 13 20 29.89 1012 10 16 0.00 0.00
6:52 pm 18:52 Sunny 78 25.6 65 18.3 64 64 S 16 26 29.89 1012 10 16 0.00 0.00
7:52 pm 19:52 Cloudy 76 24.4 67 19.4 74 74 SSE 12 19 29.91 1013 10 16 0.00 0.00
8:52 pm 20:52 Cloudy 75 23.9 66 18.9 74 74 SE 14 22 29.92 1013 10 16 0.00 0.00
9:52 pm 21:52 Mostly Cloudy 73 22.8 66 18.9 79 79 SSE 16 26 29.93 1014 10 16 0.00 0.00
10:52 pm 22:52 Mostly Clear 71 21.7 66 18.9 84 84 SSE 17 28 29.94 1014 10 16 0.00 0.00
11:31 pm 23:31 Mostly Cloudy 72 22.2 66 18.9 82 82 SSE 18 30 29.94 1014 10 16 0.00 0.00
11:52 pm 23:52 Cloudy 72 22.2 67 19.4 84 84 SSE 15 24 29.94 1014 10 16 0.00 0.00

Powered by AerisWeather